EW1714 Weather Reports


Display with metric or nautical units.
time (UTC)temp
F
wind
direction
speed
MPH
gust
MPH
rain 1hr
in
rain 24hr
in
rain mn
in
humidity
%
barometer
mb
20260903164006 70 359 0.0 3.0 0.00 0.00 0.00 88 1014.1
20260903163506 69 359 0.0 0.0 0.00 0.00 0.00 87 1014.1
20260903163013 69 359 0.0 0.0 0.00 0.00 0.00 89 1014.2
20260903162508 69 359 0.0 5.0 0.00 0.00 0.00 89 1014.2
20260903162007 69 359 0.0 5.0 0.00 0.00 0.00 88 1014.3
20260903161524 69 359 1.0 5.0 0.00 0.00 0.00 89 1014.3
20260903161011 68 359 0.0 4.0 0.00 0.00 0.00 89 1014.3
20260903160513 68 359 0.0 4.0 0.00 0.00 0.00 89 1014.5
20260903160030 68 359 0.0 4.0 0.00 0.00 0.00 90 1014.4
20260903155514 68 359 0.0 6.0 0.00 0.00 0.00 90 1014.4
20260903155007 68 359 1.0 6.0 0.00 0.00 0.00 91 1014.3
20260903154506 68 1 0.0 1.0 0.00 0.00 0.00 91 1014.4
20260903154005 67 1 0.0 0.0 0.00 0.00 0.00 91 1014.5
20260903153504 67 1 0.0 2.0 0.00 0.00 0.00 91 1014.4
20260903153012 67 1 0.0 2.0 0.00 0.00 0.00 91 1014.7
20260903152505 67 1 0.0 1.0 0.00 0.00 0.00 91 1014.7
20260903152006 67 1 0.0 4.0 0.00 0.00 0.00 91 1014.9
20260903151519 67 1 0.0 4.0 0.00 0.00 0.00 91 1014.8
20260903151008 67 270 0.0 0.0 0.00 0.00 0.00 92 1014.9
20260903150512 66 270 0.0 3.0 0.00 0.00 0.00 92 1014.9
20260903150029 66 270 0.0 3.0 0.00 0.00 0.00 92 1014.9
20260903145513 66 269 0.0 0.0 0.00 0.00 0.00 92 1015.0
20260903145016 66 269 0.0 0.0 0.00 0.00 0.00 93 1015.1
20260903144531 66 269 0.0 0.0 0.00 0.00 0.00 93 1015.1
20260903144018 66 269 0.0 0.0 0.00 0.00 0.00 93 1015.2
20260903143514 65 269 0.0 0.0 0.00 0.00 0.00 93 1015.2
20260903143008 65 269 0.0 0.0 0.00 0.00 0.00 93 1015.1
20260903142506 65 269 0.0 0.0 0.00 0.00 0.00 93 1015.0
20260903142008 65 269 0.0 0.0 0.00 0.00 0.00 94 1015.0
20260903141512 65 269 0.0 0.0 0.00 0.00 0.00 94 1015.0
20260903141009 65 193 0.0 0.0 0.00 0.00 0.00 93 1015.1
20260903140510 65 193 0.0 0.0 0.00 0.00 0.00 94 1015.3
20260903140025 65 193 0.0 0.0 0.00 0.00 0.00 94 1015.4
20260903135509 65 193 0.0 0.0 0.00 0.00 0.00 94 1015.5
20260903135012 64 193 0.0 0.0 0.00 0.00 0.00 94 1015.5
20260903134527 64 193 0.0 0.0 0.00 0.00 0.00 94 1015.5
20260903134017 64 193 0.0 0.0 0.00 0.00 0.00 94 1015.5
20260903133513 64 193 0.0 0.0 0.00 0.00 0.00 94 1015.4
20260903133029 64 193 0.0 0.0 0.00 0.00 0.00 95 1015.4
20260903132515 64 193 0.0 0.0 0.00 0.00 0.00 95 1015.3
20260903132016 64 193 0.0 0.0 0.00 0.00 0.00 95 1015.2
20260903131512 64 193 0.0 0.0 0.00 0.00 0.00 95 1015.1
20260903131007 64 193 0.0 0.0 0.00 0.00 0.00 95 1015.3
20260903130511 64 193 0.0 0.0 0.00 0.00 0.00 95 1015.3
20260903130020 64 193 0.0 0.0 0.00 0.00 0.00 95 1015.4
20260903125510 63 193 0.0 0.0 0.00 0.00 0.00 95 1015.4
20260903125010 63 193 0.0 0.0 0.00 0.00 0.00 95 1015.5
20260903124524 63 193 0.0 0.0 0.00 0.00 0.00 95 1015.5
20260903124003 63 193 0.0 0.0 0.00 0.00 0.00 95 1015.6
20260903123504 63 193 0.0 0.0 0.00 0.00 0.00 95 1015.6
20260903123007 63 193 0.0 0.0 0.00 0.00 0.00 95 1015.8
20260903122504 63 193 0.0 0.0 0.00 0.00 0.00 95 1015.8
20260903122003 63 193 0.0 0.0 0.00 0.00 0.00 95 1015.9
20260903121505 63 193 0.0 0.0 0.00 0.00 0.00 96 1015.9
20260903121005 63 193 0.0 0.0 0.00 0.00 0.00 96 1015.8
20260903120506 63 193 0.0 0.0 0.00 0.00 0.00 96 1015.9
20260903120024 63 193 0.0 0.0 0.00 0.00 0.00 96 1015.9
20260903115508 63 193 0.0 0.0 0.00 0.00 0.00 96 1015.9
20260903115011 63 193 0.0 0.0 0.00 0.00 0.00 95 1016.0
20260903114516 62 193 0.0 0.0 0.00 0.00 0.00 95 1016.1
20260903114002 62 193 0.0 0.0 0.00 0.00 0.00 95 1016.0
20260903113503 62 193 0.0 0.0 0.00 0.00 0.00 95 1016.1
20260903113003 62 193 0.0 0.0 0.00 0.00 0.00 95 1016.1
20260903112503 62 193 0.0 0.0 0.00 0.00 0.00 95 1016.1
20260903112004 62 193 0.0 0.0 0.00 0.00 0.00 95 1016.1
20260903111504 62 193 0.0 0.0 0.00 0.00 0.00 95 1016.1
20260903111004 62 193 0.0 0.0 0.00 0.00 0.00 95 1016.0
20260903110505 62 193 0.0 0.0 0.00 0.00 0.00 95 1016.0
20260903110008 62 193 0.0 0.0 0.00 0.00 0.00 95 1016.0
20260903105507 62 193 0.0 0.0 0.00 0.00 0.00 95 1016.2
20260903105008 62 193 0.0 0.0 0.00 0.00 0.00 95 1016.3
20260903104516 62 193 0.0 0.0 0.00 0.00 0.00 95 1016.3
20260903104011 62 193 0.0 0.0 0.00 0.00 0.00 95 1016.2
20260903103510 62 193 0.0 0.0 0.00 0.00 0.00 94 1016.1
20260903103025 62 193 0.0 0.0 0.00 0.00 0.00 94 1016.3
20260903102513 62 193 0.0 0.0 0.00 0.00 0.00 94 1016.2
20260903102005 62 193 0.0 0.0 0.00 0.00 0.00 94 1016.3
20260903101506 62 193 0.0 0.0 0.00 0.00 0.00 94 1016.3
20260903101003 62 193 0.0 0.0 0.00 0.00 0.00 94 1016.2
20260903100503 62 193 0.0 0.0 0.00 0.00 0.00 94 1016.2
20260903100007 62 193 0.0 0.0 0.00 0.00 0.00 93 1016.2
20260903095505 62 193 0.0 0.0 0.00 0.00 0.00 94 1016.2
20260903095004 62 193 0.0 0.0 0.00 0.00 0.00 93 1016.2
20260903094511 62 193 0.0 0.0 0.00 0.00 0.00 93 1016.2
20260903094006 62 193 0.0 0.0 0.00 0.00 0.00 93 1016.2
20260903093508 62 193 0.0 2.0 0.00 0.00 0.00 93 1016.3
20260903093031 63 193 0.0 2.0 0.00 0.00 0.00 93 1016.2
20260903092510 63 193 0.0 0.0 0.00 0.00 0.00 93 1016.3
20260903092011 63 193 0.0 0.0 0.00 0.00 0.00 93 1016.5
20260903091532 63 193 0.0 0.0 0.00 0.00 0.00 93 1016.7
20260903091013 63 193 0.0 0.0 0.00 0.00 0.00 92 1016.8
20260903090504 63 193 0.0 0.0 0.00 0.00 0.00 92 1016.8
20260903090004 63 193 0.0 0.0 0.00 0.00 0.00 92 1016.7
20260903085504 63 193 0.0 0.0 0.00 0.00 0.00 92 1016.6
20260903085003 63 193 0.0 0.0 0.00 0.00 0.00 91 1016.8
20260903084509 63 193 0.0 0.0 0.00 0.00 0.00 91 1016.8
20260903084005 64 193 0.0 0.0 0.00 0.00 0.00 91 1016.8
20260903083507 64 193 0.0 0.0 0.00 0.00 0.00 91 1016.8
20260903083012 64 193 0.0 0.0 0.00 0.00 0.00 90 1016.7
20260903082508 64 193 0.0 0.0 0.00 0.00 0.00 89 1016.7
20260903082008 64 193 0.0 0.0 0.00 0.00 0.00 89 1016.7
20260903081520 64 193 0.0 0.0 0.00 0.00 0.00 88 1016.9
20260903081010 65 193 0.0 4.0 0.00 0.00 0.00 87 1016.8
20260903080513 65 193 0.0 4.0 0.00 0.00 0.00 85 1016.7
20260903080026 65 193 0.0 0.0 0.00 0.00 0.00 85 1016.7
20260903075515 65 193 0.0 5.0 0.00 0.00 0.00 83 1016.8
20260903075016 65 193 0.0 5.0 0.00 0.00 0.00 81 1016.8
20260903074531 65 192 0.0 5.0 0.00 0.00 0.00 81 1016.8
20260903074004 65 191 0.0 5.0 0.00 0.00 0.00 81 1016.8
20260903073505 65 191 0.0 7.0 0.00 0.00 0.00 82 1016.8
20260903073027 65 181 0.0 7.0 0.00 0.00 0.00 82 1016.7
20260903072508 65 157 0.0 4.0 0.00 0.00 0.00 82 1016.7
20260903072008 65 214 0.0 4.0 0.00 0.00 0.00 82 1016.9
20260903071516 65 214 0.0 4.0 0.00 0.00 0.00 82 1016.8
20260903071008 65 207 0.0 3.0 0.00 0.00 0.00 82 1016.9
20260903070508 65 207 0.0 3.0 0.00 0.00 0.00 82 1016.9
20260903070034 65 250 0.0 2.0 0.00 0.00 0.00 83 1017.0
20260903065514 65 205 0.0 2.0 0.00 0.00 0.00 83 1017.1
20260903065012 65 205 0.0 4.0 0.00 0.00 0.00 82 1017.3
20260903064530 65 115 0.0 4.0 0.00 0.00 0.00 82 1017.4
20260903064015 65 185 0.0 4.0 0.00 0.00 0.00 83 1017.6
20260903063516 65 195 0.0 0.0 0.00 0.00 0.00 83 1017.8
20260903063010 65 195 0.0 1.0 0.00 0.00 0.00 83 1017.9
20260903062507 65 195 0.0 1.0 0.00 0.00 0.00 83 1018.0
20260903062007 65 214 0.0 1.0 0.00 0.00 0.00 83 1018.0
20260903061528 65 203 0.0 1.0 0.00 0.00 0.00 84 1018.2
20260903061007 66 200 0.0 1.0 0.00 0.00 0.00 84 1018.3
20260903060512 66 200 0.0 1.0 0.00 0.00 0.00 84 1018.5
20260903060020 66 200 0.0 0.0 0.00 0.00 0.00 84 1018.8
20260903055510 66 200 0.0 0.0 0.00 0.00 0.00 84 1018.9
20260903055013 66 200 0.0 4.0 0.00 0.00 0.00 84 1019.0
20260903054528 65 200 0.0 4.0 0.00 0.00 0.00 83 1019.1
20260903054014 65 187 0.0 3.0 0.00 0.00 0.00 84 1019.1
20260903053514 65 171 0.0 3.0 0.00 0.00 0.00 84 1019.1
20260903053027 65 200 0.0 0.0 0.00 0.00 0.00 85 1019.1
20260903052516 65 172 0.0 1.0 0.00 0.00 0.00 85 1019.0
20260903052016 65 197 0.0 1.0 0.00 0.00 0.00 86 1019.2
20260903051532 65 185 0.0 0.0 0.00 0.00 0.00 86 1018.9
20260903051003 65 185 0.0 0.0 0.00 0.00 0.00 86 1019.0
20260903050508 65 185 0.0 0.0 0.00 0.00 0.00 86 1018.9
20260903050016 65 185 0.0 0.0 0.00 0.00 0.00 87 1018.8
20260903045510 65 185 0.0 0.0 0.00 0.00 0.00 87 1018.8
20260903045011 65 185 0.0 0.0 0.00 0.00 0.00 87 1018.9
20260903044521 65 184 0.0 0.0 0.00 0.00 0.00 87 1019.1
20260903044013 65 188 0.0 1.0 0.00 0.00 0.00 87 1019.3
20260903043513 66 188 0.0 1.0 0.00 0.00 0.00 87 1019.4
20260903043029 66 179 0.0 0.0 0.00 0.00 0.00 87 1019.4
20260903042514 66 179 0.0 0.0 0.00 0.00 0.00 86 1019.5
20260903042017 66 179 0.0 0.0 0.00 0.00 0.00 87 1019.5
20260903041533 66 179 0.0 0.0 0.00 0.00 0.00 86 1019.5
20260903041014 66 179 0.0 0.0 0.00 0.00 0.00 86 1019.5
20260903040516 66 179 0.0 0.0 0.00 0.00 0.00 86 1019.4
20260903040036 66 179 0.0 0.0 0.00 0.00 0.00 86 1019.3
20260903035519 66 179 0.0 0.0 0.00 0.00 0.00 86 1019.3
20260903035009 66 179 0.0 0.0 0.00 0.00 0.00 86 1019.3
20260903034518 66 179 0.0 0.0 0.00 0.00 0.00 86 1019.3
20260903034010 66 179 0.0 0.0 0.00 0.00 0.00 85 1019.3
20260903033504 66 179 0.0 0.0 0.00 0.00 0.00 85 1019.4
20260903033004 66 179 0.0 0.0 0.00 0.00 0.00 85 1019.5
20260903032503 66 179 0.0 0.0 0.00 0.00 0.00 85 1019.7
20260903032004 66 178 0.0 0.0 0.00 0.00 0.00 85 1019.7
20260903031505 66 178 0.0 0.0 0.00 0.00 0.00 85 1019.8
20260903031004 66 178 0.0 0.0 0.00 0.00 0.00 85 1019.9
20260903030505 66 178 0.0 0.0 0.00 0.00 0.00 84 1020.0
20260903030010 66 169 0.0 0.0 0.00 0.00 0.00 84 1020.0
20260903025508 66 200 0.0 0.0 0.00 0.00 0.00 84 1020.0
20260903025004 66 200 0.0 0.0 0.00 0.00 0.00 84 1020.1
20260903024516 66 200 0.0 0.0 0.00 0.00 0.00 84 1020.1
20260903024006 66 200 0.0 0.0 0.00 0.00 0.00 84 1020.2
20260903023511 66 200 0.0 0.0 0.00 0.00 0.00 84 1020.0
20260903023021 66 200 0.0 0.0 0.00 0.00 0.00 84 1020.2
20260903022511 66 200 0.0 0.0 0.00 0.00 0.00 83 1020.3
20260903022003 66 200 0.0 0.0 0.00 0.00 0.00 83 1020.5
20260903021507 66 200 0.0 2.0 0.00 0.00 0.00 83 1020.3
20260903021002 66 200 0.0 4.0 0.00 0.00 0.00 83 1020.2
20260903020503 66 186 0.0 4.0 0.00 0.00 0.00 83 1020.1
20260903020008 66 225 0.0 0.0 0.00 0.00 0.00 83 1020.2
20260903015509 66 225 0.0 0.0 0.00 0.00 0.00 83 1020.4
20260903015004 66 225 0.0 0.0 0.00 0.00 0.00 83 1020.6
20260903014512 66 225 0.0 0.0 0.00 0.00 0.00 83 1020.8
20260903014005 66 225 0.0 0.0 0.00 0.00 0.00 83 1020.6
20260903013508 66 225 0.0 0.0 0.00 0.00 0.00 83 1020.4
20260903013034 66 226 0.0 0.0 0.00 0.00 0.00 83 1020.5
20260903012510 67 223 0.0 0.0 0.00 0.00 0.00 82 1020.2
20260903012010 67 225 0.0 0.0 0.00 0.00 0.00 82 1019.9
20260903011526 67 219 0.0 0.0 0.00 0.00 0.00 82 1019.8
20260903011013 67 218 0.0 1.0 0.00 0.00 0.00 82 1019.8
20260903010514 67 212 0.0 3.0 0.00 0.00 0.00 81 1019.7
20260903010030 67 191 0.0 3.0 0.00 0.00 0.00 81 1019.9
20260903005503 67 171 0.0 3.0 0.00 0.00 0.00 80 1019.9
20260903005003 67 205 0.0 3.0 0.00 0.00 0.00 80 1020.0
20260903004509 67 237 0.0 0.0 0.00 0.00 0.00 79 1020.1
20260903004004 68 209 0.0 0.0 0.00 0.00 0.00 79 1020.1
20260903003505 68 214 0.0 0.0 0.00 0.00 0.00 78 1020.0
20260903003016 68 210 0.0 0.0 0.00 0.00 0.00 77 1020.1
20260903002507 68 192 0.0 0.0 0.00 0.00 0.00 77 1020.1
20260903002009 68 192 0.0 4.0 0.00 0.00 0.00 77 1020.1
20260903001521 68 191 0.0 4.0 0.00 0.00 0.00 76 1020.1
20260903001010 68 185 0.0 4.0 0.00 0.00 0.00 75 1020.2
20260903000511 68 285 0.0 2.0 0.00 0.00 0.00 74 1020.2
20260903000029 68 250 0.0 2.0 0.00 0.00 0.00 73 1020.3
20260902235513 68 341 0.0 0.0 0.00 0.00 0.00 74 1020.4
20260902235017 69 341 0.0 0.0 0.00 0.00 0.00 73 1020.6
20260902234504 69 341 0.0 0.0 0.00 0.00 0.00 73 1020.8
20260902234004 69 341 0.0 0.0 0.00 0.00 0.00 72 1020.7
20260902233504 69 341 0.0 0.0 0.00 0.00 0.00 72 1020.8
20260902233013 69 341 0.0 0.0 0.00 0.00 0.00 70 1021.0
20260902232508 69 345 0.0 0.0 0.00 0.00 0.00 70 1021.0
20260902232007 69 345 0.0 0.0 0.00 0.00 0.00 70 1021.0
20260902231514 69 345 0.0 0.0 0.00 0.00 0.00 68 1021.0
20260902231009 70 347 0.0 0.0 0.00 0.00 0.00 70 1021.2
20260902230510 70 347 0.0 0.0 0.00 0.00 0.00 69 1021.2
20260902230027 70 338 0.0 0.0 0.00 0.00 0.00 68 1021.2
20260902225512 70 329 0.0 0.0 0.00 0.00 0.00 69 1021.1
20260902225013 70 223 0.0 1.0 0.00 0.00 0.00 70 1021.0
20260902224544 70 220 0.0 1.0 0.00 0.00 0.00 70 1020.9
20260902224018 70 212 0.0 0.0 0.00 0.00 0.00 70 1021.1
20260902223516 71 212 0.0 0.0 0.00 0.00 0.00 71 1021.2
20260902223046 71 211 0.0 3.0 0.00 0.00 0.00 72 1021.4
20260902222505 71 210 0.0 3.0 0.00 0.00 0.00 70 1021.5
20260902222004 71 224 0.0 0.0 0.00 0.00 0.00 69 1021.5
20260902221519 71 224 0.0 0.0 0.00 0.00 0.00 71 1021.5
20260902221007 71 224 0.0 5.0 0.00 0.00 0.00 69 1021.6
20260902220508 71 224 0.0 5.0 0.00 0.00 0.00 68 1021.5
20260902220043 71 342 0.0 1.0 0.00 0.00 0.00 69 1021.4
20260902215508 71 240 0.0 1.0 0.00 0.00 0.00 69 1021.3
20260902215010 71 330 0.0 0.0 0.00 0.00 0.00 69 1021.2
20260902214524 72 332 0.0 5.0 0.00 0.00 0.00 68 1021.2
20260902214012 72 332 0.0 5.0 0.00 0.00 0.00 68 1021.1
20260902213514 72 22 0.0 4.0 0.00 0.00 0.00 69 1021.1
20260902213030 72 290 0.0 4.0 0.00 0.00 0.00 69 1021.3
20260902212518 72 342 0.0 6.0 0.00 0.00 0.00 71 1021.2
20260902212018 72 342 0.0 6.0 0.00 0.00 0.00 70 1021.3
20260902211533 72 207 0.0 4.0 0.00 0.00 0.00 70 1021.2
20260902211006 73 13 0.0 6.0 0.00 0.00 0.00 70 1021.0
20260902210505 73 294 0.0 6.0 0.00 0.00 0.00 70 1020.9
20260902210019 73 336 0.0 6.0 0.00 0.00 0.00 69 1020.8
20260902205508 73 335 0.0 6.0 0.00 0.00 0.00 71 1020.9
20260902205011 73 205 0.0 6.0 0.00 0.00 0.00 70 1021.1
20260902204525 73 333 0.0 4.0 0.00 0.00 0.00 70 1021.2
20260902204010 74 270 0.0 7.0 0.00 0.00 0.00 70 1021.3
20260902203512 74 6 0.0 9.0 0.00 0.00 0.00 69 1021.3
20260902203028 74 67 2.0 9.0 0.00 0.00 0.00 68 1021.5
20260902202515 75 304 0.0 8.0 0.00 0.00 0.00 69 1021.6
20260902202015 75 326 0.0 7.0 0.00 0.00 0.00 69 1021.4
20260902201543 75 24 1.0 9.0 0.00 0.00 0.00 69 1021.5
20260902201017 75 10 4.0 9.0 0.00 0.00 0.00 69 1021.6
20260902200516 75 4 0.0 8.0 0.00 0.00 0.00 70 1021.7
20260902200013 75 356 2.0 8.0 0.00 0.00 0.00 68 1021.8
20260902195511 75 345 2.0 10.0 0.00 0.00 0.00 70 1021.8
20260902195008 74 314 2.0 10.0 0.00 0.00 0.00 71 1021.7
20260902194528 74 1 0.0 9.0 0.00 0.00 0.00 72 1021.6
20260902194009 73 41 1.0 7.0 0.00 0.00 0.00 74 1021.8
20260902193502 73 317 0.0 8.0 0.00 0.00 0.00 75 1021.7
20260902193014 73 16 0.0 8.0 0.00 0.00 0.00 75 1021.8
20260902192503 73 359 0.0 6.0 0.00 0.00 0.00 75 1021.8
20260902192004 73 28 0.0 6.0 0.00 0.00 0.00 75 1022.0
20260902191505 73 1 0.0 7.0 0.00 0.00 0.00 75 1022.0
20260902191004 73 17 1.0 7.0 0.00 0.00 0.00 74 1021.9
20260902190504 74 19 0.0 4.0 0.00 0.00 0.00 73 1022.0
20260902190012 74 359 0.0 7.0 0.00 0.00 0.00 74 1022.0
20260902185506 74 360 0.0 7.0 0.00 0.00 0.00 73 1022.0
20260902185006 74 59 1.0 7.0 0.00 0.00 0.00 72 1021.9
20260902184516 75 358 0.0 2.0 0.00 0.00 0.00 72 1021.8
20260902184009 75 63 0.0 2.0 0.00 0.00 0.00 72 1021.8
20260902183511 74 22 0.0 5.0 0.00 0.00 0.00 73 1021.9
20260902183026 74 342 0.0 5.0 0.00 0.00 0.00 71 1022.0
20260902182511 74 352 0.0 5.0 0.00 0.00 0.00 73 1021.9
20260902182002 74 238 0.0 5.0 0.00 0.00 0.00 73 1021.7
20260902181504 74 360 0.0 5.0 0.00 0.00 0.00 73 1021.8
20260902181004 74 32 0.0 5.0 0.00 0.00 0.00 73 1021.8
20260902180503 73 350 0.0 6.0 0.00 0.00 0.00 73 1021.8
20260902180007 73 7 1.0 6.0 0.00 0.00 0.00 74 1021.8
20260902175504 73 348 0.0 1.0 0.00 0.00 0.00 77 1022.0
20260902175007 73 343 0.0 5.0 0.00 0.00 0.00 78 1022.0
20260902174510 73 297 0.0 7.0 0.00 0.00 0.00 78 1022.1
20260902174004 73 354 2.0 7.0 0.00 0.00 0.00 76 1022.0
20260902173508 72 10 2.0 7.0 0.00 0.00 0.00 77 1022.0
20260902173022 72 46 0.0 6.0 0.00 0.00 0.00 77 1022.1
20260902172509 72 17 0.0 1.0 0.00 0.00 0.00 77 1022.1
20260902172010 72 31 0.0 0.0 0.00 0.00 0.00 79 1022.2
20260902171524 72 31 0.0 3.0 0.00 0.00 0.00 80 1022.2
20260902171011 72 31 0.0 3.0 0.00 0.00 0.00 80 1022.3
20260902170518 72 88 0.0 2.0 0.00 0.00 0.00 79 1022.4
20260902170004 72 17 0.0 2.0 0.00 0.00 0.00 78 1022.4
20260902165507 72 15 0.0 0.0 0.00 0.00 0.00 78 1022.5
20260902165005 72 13 0.0 6.0 0.00 0.00 0.00 77 1022.5
20260902164508 72 13 0.0 6.0 0.00 0.00 0.00 77 1022.4